Location: *
(40.9167°N, 9.5000°E)
Time: 02:31:51
(UTC+00:00)

Spot 2 Rocket - Pass Details

Date: 09 April 2020
Orbit: 757 x 772 km, 98.6° (Epoch: 05 June)

Event Time Altitude Azimuth Distance (km) Brightness Sun altitude
Exits shadow 20:22:12 78° 83° (E) 792 3.3 -25.8°
Maximum altitude 20:22:15 78° 75° (ENE) 792 3.4 -25.8°
Drops below altitude 10° 20:27:22 10° 349° (N) 2,321 6.6 -26.6°
Sets 20:29:41 0° 349° (NNW) 3,250 7.5 -26.9°
